User: anonymous   Login
Location: Cronhütte
(48.9135°N, 9.6869°E)
Time: 12:29:37
(UTC+00:00)
Language:

Cosmos 1703 Rocket - Orbit

View from above orbital plane
View from above orbital plane
View from above satellite
View from above satellite

Ground track
Ground track

The orbit data is extracted from the following two-line orbital elements,

1 16263U 85108B   24200.76027399  .00001209  00000-0  14067-3 0  9994
2 16263  82.5019 204.8273 0021231  98.7233  73.9119 14.84341733 67036
Epoch (UTC): 18 July 2024 18:14:47
Eccentricity: 0.0021231
inclination: 82.5019°
perigee height: 601 km
apogee height: 630 km
right ascension of ascending node: 204.8273°
argument of perigee: 98.7233°
revolutions per day: 14.84341733
mean anomaly at epoch: 73.9119°
orbit number at epoch: 6703

The dashed part of the orbit path shows where the satellite is in the earth's shadow,  

DLR